www.pogodaiklimat.ru

Погода и климат >> Архив погоды >> Россия >> Якутия >> Ярольин


ПОГОДА в Ярольине

  • Прогноз погоды в Ярольине
  • Монитор погоды в Ярольине

АРХИВ ПОГОДЫ в Ярольине

Время (UTC), дата Ветер
(напр.,м/с)
 
Видим.   Явления Облачность Т
(С)
Тd
(С)
f
(%)
Тe
(С)
Тes
(С)
Комфортность P
(гПа)
Po
(гПа)
Тmin
(С)
Tmax
(С)
R
(мм)
R24
(мм)
S
(см)
06 17.07 С 6-10
{12}
50 км {ливн. осадки} 10/10 600 м
[Cb cap]
+16.5 +12.7 78 +15 +15 1013.5 985.9
09 17.07 С 2
{10}
50 км 9/9 1000 м
[Sc]
+15.2 +9.4 68 +15 +16 1016.5 988.7
12 17.07 С 3 50 км 5/5 1000 м
[Sc]
+16.8 +7.5 54 +17 +17 1017.8 990.1 +20.9 0.0
15 17.07 С 2 50 км 4/3 1000 м
[Sc diur, vesp Ac trans]
+15.1 +6.7 57 +15 +15 1018.8 990.8
18 17.07 штиль 0 50 км 1/0
[Ac trans]
+6.7 +4.9 88 +6 +6 1022.3 993.5
21 17.07 штиль 0 50 км 3/0
[Cs]
+2.8 +1.2 89 +2 +2 1024.0 994.7
00 18.07 В 1 50 км 3/0
[Cs]
+11.0 +3.8 61 +11 +16 1023.4 994.9 +1.7
03 18.07 В 3 50 км 5/3 600 м
[Cu hum Cs]
+14.3 +4.1 50 +14 +19 1022.5 994.3
06 18.07 В 4 50 км 5/5 600 м
[Cu hum]
+16.3 +4.1 44 +16 +19 1021.5 993.5
09 18.07 СВ 5 50 км 8/5 1000 м
[Sc Ci fib]
+17.5 +4.5 42 +17 +18 1021.5 993.6
12 18.07 СВ 4 50 км 3/0
[Cs]
+16.4 +2.5 39 +16 +16 1022.6 994.6 +18.0
15 18.07 СВ 1 50 км 3/0
[Cs]
+13.4 +3.1 50 +14 +14 1024.1 995.8
18 18.07 СВ 1 50 км 3/0
[Ac trans Ci fib]
+7.0 +1.9 70 +6 +6 1026.0 997.0
21 18.07 З 1 50 км 10/0
[Ac lent Cs]
+3.8 +1.8 87 +2 +3 1027.8 998.5
00 19.07 СЗ 2 50 км 10/0
[Ac lent Ci sp]
+9.8 +4.2 68 +8 +10 1028.0 999.3 +1.3
03 19.07 СВ 5 50 км 6/4 600 м
[Cu med, cong Cc]
+15.0 +5.3 52 +14 +17 1026.3 998.1
06 19.07 В 5 50 км 4/4 600 м
[Cu hum]
+18.3 +3.3 37 +18 +21 1025.2 997.3
09 19.07 В 5 50 км 8/8 600 м
[Sc]
+19.4 +2.3 32 +19 +20 1024.6 996.8
12 19.07 СВ 2 50 км 8/8 1000 м
[Sc diur, vesp]
+18.3 +2.4 35 +19 +19 1024.8 996.9 +19.7
15 19.07 В 1 50 км 3/3 1000 м
[Sc diur, vesp Ci fib]
+15.7 +2.6 41 +17 +17 1025.4 997.3
18 19.07 штиль 0 50 км 3/0
[Ac trans Ci fib]
+5.0 +1.2 76 +4 +4 1027.9 998.7
21 19.07 штиль 0 50 км 4/0
[Ac trans Ci fib]
+1.1 -0.9 86 0 +1 1029.2 999.5
00 20.07 штиль 0 50 км ясно +10.8 +2.7 57 +11 +16 1028.3 999.7 +0.8
03 20.07 ЮЗ 1 50 км 4/3 600 м
[Cu hum Ci fib]
+19.6 +4.2 36 +21 +29 комфорт 1026.4 998.7
06 20.07 В 2 50 км 3/0
[Ci fib]
+20.6 +4.0 34 +22 +31 комфорт 1024.4 996.8
09 20.07 СВ 2 50 км 3/0
[Ci fib]
+21.8 +4.2 32 +22 +27 комфорт 1022.7 995.2
12 20.07 Ю 2 50 км 3/0
[Cs]
+22.3 +4.1 30 +22 +23 комфорт 1021.6 994.2 +22.7
15 20.07 штиль 0 50 км 3/0
[Ac trans Ci fib]
+18.9 +3.7 36 +19 +19 1021.7 994.0
18 20.07 штиль 0 50 км 1/0
[Ac trans]
+7.7 +3.5 75 +7 +7 1023.3 994.5
21 20.07 штиль 0 50 км ясно +4.8 +2.6 86 +4 +5 1024.0 994.9
00 21.07 штиль 0 50 км ясно +14.4 +6.3 58 +14 +20 1022.6 994.8 +2.8
03 21.07 СВ 2 50 км ясно +22.9 +5.4 32 +23 +32 комфорт 1021.0 993.7
06 21.07 С 1 50 км ясно +25.3 +6.8 31 +25 +37 комфорт 1019.3 992.3
09 21.07 штиль 0 50 км ясно +26.3 +5.6 27 +26 +33 жарко 1017.8 990.8
12 21.07 штиль 0 50 км ясно +26.6 +5.8 26 +26 +27 жарко 1017.1 990.3 +27.0
15 21.07 штиль 0 50 км ясно +22.2 +4.9 32 +22 +22 комфорт 1017.3 990.1
18 21.07 штиль 0 50 км ясно +8.9 +6.3 84 +8 +8 1019.2 990.6
21 21.07 штиль 0 50 км 3/0
[Cs]
+7.4 +5.4 87 +7 +7 1019.7 990.9
00 22.07 СВ 1 50 км ясно +17.4 +7.5 52 +18 +23 1018.4 990.7 +5.8
03 22.07 штиль 0 50 км ясно +26.2 +8.0 32 +26 +39 жарко 1016.3 989.4
06 22.07 В 1 50 км ясно +29.1 +7.8 26 +28 +40 жарко 1014.3 987.7
09 22.07 В 2 50 км ясно +29.9 +8.1 26 +29 +34 жарко 1012.5 986.1
12 22.07 СВ 1 50 км ясно +29.6 +9.5 29 +29 +30 жарко 1011.7 985.3 +30.6
15 22.07 В 1 50 км 3/0
[Cs]
+25.2 +9.1 36 +26 +26 жарко 1011.8 985.0
18 22.07 штиль 0 50 км 3/0
[Cs]
+12.6 +9.2 80 +12 +12 1013.1 975.1
21 22.07 штиль 0 50 км 3/0
[Cs]
+9.6 +7.1 84 +9 +9 1013.6 985.3
00 23.07 штиль 0 10 км дым ясно +17.3 +9.9 62 +17 +23 1012.7 985.2 +8.7
03 23.07 СЗ 1 10 км дым ясно +27.2 +12.5 40 +29 +39 жарко 1010.5 984.0
06 23.07 С 1 10 км дым ясно +29.9 +9.2 28 +30 +41 жарко 1009.2 982.8
09 23.07 Ю 3 10 км дым ясно +31.0 +11.2 30 +31 +35 жарко 1008.0 981.8
12 23.07 ЮЗ 3 10 км дым 10/0
[Ci fib]
+28.8 +9.3 30 +29 +29 жарко 1008.1 981.7 +31.4
15 23.07 штиль 0 4000 м мгла 10/0
[Ci fib]
+22.3 +8.8 42 +24 +24 комфорт 1008.9 981.9
18 23.07 штиль 0 4000 м мгла 10/0
[Ac trans Cs]
+13.0 +9.5 79 +13 +13 1009.9 982.0
21 23.07 штиль 0 4000 м мгла 10/0
[Ac trans Cs]
+10.4 +8.8 90 +10 +10 1010.3 982.2
00 24.07 В 1 4000 м мгла 10/0
[Ac cast Cs]
+13.9 +10.1 78 +14 +17 1009.5 981.7 +8.9
03 24.07 штиль 0 4000 м мгла 10/0
[Ac trans Cs]
+21.5 +12.1 55 +24 +29 комфорт 1007.5 980.5

 

Местоположение метеостанции Ярольин (Якутия, Россия): широта 67.13 долгота 108.50 высота над уровнем моря 236 м.

В архиве по умолчанию представлена погода в Ярольине за последнюю неделю. Архивные данные за месяц целиком и за предыдущие месяцы, начиная с января 2011 года, Вы можете получить, выбрав интересующий диапазон дат из раскрывающегося списка и нажав кнопку "Ввод!".


*Определитесь, кто Вы:
робот инопланетянин человек

Внимание! Время в таблицах - всемирное. Для получения местного времени необходимо прибавить поправку, которая равна 9 ч.

Смотрите также архив погоды в соседних городах и на ближайших метеорологических станциях:

Погода в Полярном (Якутия, Россия) (176 км)
Погода в Айхале (Якутия, Россия) (187 км)
Погода в Оленеке (Якутия, Россия) (224 км)
Погода в Шелагонцах (Якутия, Россия) (269 км)
Погода в Хабардино (Якутия, Россия) (335 км)
Погода в Джалинде (Якутия, Россия) (399 км)
Погода в Эйке (Якутия, Россия) (412 км)
Погода в Сухане (Якутия, Россия) (442 км)
Погода в Кислокане (Эвенкия, Россия) (449 км)
Погода в Туре (Эвенкия, Россия) (483 км)

Пояснения к столбцам:

Ветер - указаны скорость ветра в м/с - средняя за 10 мин, порывы в срок и между сроками (в фигурных скобках) и направление, откуда дует ветер: С - северный, СВ - северо-восточный, В - восточный, ЮВ - юго-восточный, Ю - южный, ЮЗ - юго-западный, З - западный, СЗ - северо-западный.
Видимость - горизонтальная дальность видимости в метрах или километрах. При видимости от 1 до 10 км при отсутствии осадков обычно наблюдается дымка, при ухудшении видимости до 1 км и менее - туман. В сухую погоду видимость может ухудшаться дымом, пылью или мглою.
Явления - указаны атмосферные явления, наблюдавшиеся в срок или в последний час перед сроком; фигурными скобками обозначены явления, наблюдавшиеся между сроками (за 1-3 часа до срока); квадратными скобками обозначены град или гололедные отложения с указанием их диаметра в мм.
Облачность - указаны через наклонную черту общая и нижняя облачность в баллах и высота нижней границы облаков в метрах; квадратными скобками обозначены формы облаков: Ci - перистые, Cs - перисто-слоистые, Cc - перисто-кучевые, Ac - высококучевые, As - высокослоистые, Sc - слоисто-кучевые, Ns - слоисто-дождевые, Cu - кучевые, Cb - кучево-дождевые. Подробнее классификацию облаков см. в Атласе облаков (PDF).
T - Температура воздуха - температура, измеренная на высоте 2 м над землей.
Td - Температура точки росы - температура, при понижении до которой содержащийся в воздухе водяной пар достигнет насыщения.
f - Относительная влажность воздуха - влажноcть воздуха, измеренная на высоте 2 м над землей.
Te - Эффективная температура - температура, которую ощущает одетый по сезону человек в тени. Характеристика душности погоды. При расчете учитывается влияние влажности воздуха и скорости ветра на теплоощущения человека.
Tes - Эффективная температура на солнце - температура, которую ощущает человек, с поправкой на солнечный нагрев. Характеристика знойности погоды. Зависит от высоты солнца над горизонтом, облачности и скорости ветра. Ночью, в пасмурную погоду, а также при ветре 12 м/с и более поправка равна нулю.
P - Атмосферное давление - приведенное к уровню моря атмосферное давление.
Po - Атмосферное давление - измеренное на уровне метеостанции атмосферное давление.
Tmin - Минимальная температура - минимум температуры воздуха на высоте 2 м над землей.
Tmax - Максимальная температура - максимум температуры воздуха на высоте 2 м над землей.
R - Количество осадков - Количество выпавших осадков за период времени, мм. При наведении курсора мыши на число - период времени, за который выпало указанное количество осадков.
R24 - Количество осадков - Количество выпавших осадков за 24 часа, мм.
S - Снежный покров - Высота снежного покрова, см. При наведении курсора мыши на число - состояние снежного покрова и степень покрытия местности в баллах.